Time,TemperatureF,DewpointF,PressureIn,WindDirection,WindDirectionDegrees,WindSpeedMPH,WindSpeedGustMPH,Humidity,HourlyPrecipIn,Conditions,Clouds,dailyrainin,SoftwareType,DateUTC
2013-04-30 00:00:00,53.9,53.1,30.03,ESE,117,0.0,0.0,97,0.00,,OVC100,0.00,VWS V14.01,2013-04-30 04:00:00,
2013-04-30 00:01:00,53.9,53.1,30.03,ESE,117,0.0,0.0,97,0.00,,OVC100,0.00,VWS V14.01,2013-04-30 04:01:00,
2013-04-30 00:06:00,53.9,53.1,30.03,ESE,117,0.0,0.0,97,0.00,,OVC100,0.00,VWS V14.01,2013-04-30 04:06:00,
2013-04-30 00:11:00,53.9,53.1,30.03,ESE,117,0.0,0.0,97,0.00,,OVC100,0.00,VWS V14.01,2013-04-30 04:11:00,
2013-04-30 00:16:00,53.7,52.9,30.03,ESE,117,0.0,0.0,97,0.00,,OVC100,0.00,VWS V14.01,2013-04-30 04:16:00,
2013-04-30 00:21:00,53.6,52.8,30.03,ESE,117,0.0,0.0,97,0.00,,OVC100,0.00,VWS V14.01,2013-04-30 04:21:00,
2013-04-30 00:26:00,53.5,52.7,30.03,ESE,117,0.0,0.0,97,0.00,,OVC100,0.00,VWS V14.01,2013-04-30 04:26:00,
2013-04-30 00:30:00,53.4,52.6,30.03,ESE,117,0.0,0.0,97,0.00,,OVC044,0.00,VWS V14.01,2013-04-30 04:30:00,
2013-04-30 00:31:00,53.4,52.6,30.03,ESE,117,0.0,0.0,97,0.00,,OVC100,0.00,VWS V14.01,2013-04-30 04:31:00,
2013-04-30 00:36:00,53.2,52.4,30.03,ESE,117,0.0,0.0,97,0.00,,OVC100,0.00,VWS V14.01,2013-04-30 04:36:00,
2013-04-30 00:41:00,53.1,52.3,30.03,ESE,113,0.0,1.0,97,0.00,,OVC100,0.00,VWS V14.01,2013-04-30 04:41:00,
2013-04-30 00:46:00,52.9,52.1,30.03,ESE,113,0.0,1.0,97,0.00,,OVC100,0.00,VWS V14.01,2013-04-30 04:46:00,
2013-04-30 00:51:00,52.7,51.9,30.03,ESE,113,0.0,1.0,97,0.00,,OVC100,0.00,VWS V14.01,2013-04-30 04:51:00,
2013-04-30 00:56:00,52.6,51.8,30.03,ESE,113,0.0,1.0,97,0.00,,OVC100,0.00,VWS V14.01,2013-04-30 04:56:00,
2013-04-30 01:00:00,52.4,51.6,30.03,ESE,113,0.0,1.0,97,0.00,,OVC044,0.00,VWS V14.01,2013-04-30 05:00:00,
2013-04-30 01:01:00,52.4,51.6,30.03,ESE,113,0.0,0.0,97,0.00,,BKN023,0.00,VWS V14.01,2013-04-30 05:01:00,
2013-04-30 01:06:00,52.3,51.5,30.03,ESE,113,0.0,0.0,97,0.00,,BKN023,0.00,VWS V14.01,2013-04-30 05:06:00,
2013-04-30 01:11:00,52.1,51.3,30.03,ESE,113,0.0,0.0,97,0.00,,BKN023,0.00,VWS V14.01,2013-04-30 05:11:00,
2013-04-30 01:16:00,51.9,51.1,30.03,ESE,113,0.0,0.0,97,0.00,,BKN023,0.00,VWS V14.01,2013-04-30 05:16:00,
2013-04-30 01:21:00,51.9,51.1,30.03,ESE,113,0.0,0.0,97,0.00,,BKN023,0.00,VWS V14.01,2013-04-30 05:21:00,
2013-04-30 01:26:00,52.0,51.5,30.02,ESE,113,0.0,0.0,98,0.00,,BKN023,0.00,VWS V14.01,2013-04-30 05:26:00,
2013-04-30 01:30:00,52.1,51.5,30.03,ESE,113,0.0,0.0,98,0.00,,OVC044,0.00,VWS V14.01,2013-04-30 05:30:00,
2013-04-30 01:31:00,52.1,51.5,30.02,ESE,113,0.0,0.0,98,0.00,,BKN023,0.00,VWS V14.01,2013-04-30 05:31:00,
2013-04-30 01:36:00,51.9,51.4,30.02,ESE,113,0.0,0.0,98,0.00,,BKN023,0.00,VWS V14.01,2013-04-30 05:36:00,
2013-04-30 01:41:00,51.3,50.5,30.03,ESE,113,0.0,0.0,97,0.00,,BKN023,0.00,VWS V14.01,2013-04-30 05:41:00,
2013-04-30 01:46:00,51.2,50.4,30.02,ESE,113,0.0,0.0,97,0.00,,BKN023,0.00,VWS V14.01,2013-04-30 05:46:00,
2013-04-30 01:51:00,51.4,50.9,30.02,ESE,113,0.0,0.0,98,0.00,,BKN023,0.00,VWS V14.01,2013-04-30 05:51:00,
2013-04-30 01:56:00,51.6,51.1,30.02,ESE,113,0.0,0.0,98,0.00,,BKN023,0.00,VWS V14.01,2013-04-30 05:56:00,
2013-04-30 02:01:00,51.7,51.2,30.02,ESE,113,0.0,0.0,98,0.00,,OVC046,0.00,VWS V14.01,2013-04-30 06:01:00,
2013-04-30 02:06:00,51.8,51.3,30.02,ESE,113,0.0,0.0,98,0.00,,OVC046,0.00,VWS V14.01,2013-04-30 06:06:00,
2013-04-30 02:11:00,52.1,51.5,30.02,ESE,113,0.0,0.0,98,0.00,,OVC046,0.00,VWS V14.01,2013-04-30 06:11:00,
2013-04-30 02:16:00,52.4,51.8,30.02,ESE,113,0.0,0.0,98,0.00,,OVC046,0.00,VWS V14.01,2013-04-30 06:16:00,
2013-04-30 02:21:00,52.8,52.2,30.02,ESE,113,0.0,0.0,98,0.00,,OVC046,0.00,VWS V14.01,2013-04-30 06:21:00,
2013-04-30 02:26:00,53.1,52.5,30.02,ESE,113,0.0,0.0,98,0.00,,OVC046,0.00,VWS V14.01,2013-04-30 06:26:00,
2013-04-30 02:31:00,53.2,52.7,30.02,ESE,113,0.0,0.0,98,0.00,,OVC046,0.00,VWS V14.01,2013-04-30 06:31:00,
2013-04-30 02:36:00,52.4,51.8,30.02,SSE,165,0.0,3.0,98,0.00,,OVC046,0.00,VWS V14.01,2013-04-30 06:36:00,
2013-04-30 02:41:00,51.7,51.2,30.02,SSE,165,0.0,3.0,98,0.00,,OVC046,0.00,VWS V14.01,2013-04-30 06:41:00,
2013-04-30 02:46:00,51.6,51.1,30.01,SSE,165,0.0,3.0,98,0.00,,OVC046,0.00,VWS V14.01,2013-04-30 06:46:00,
2013-04-30 02:51:00,51.6,51.1,30.01,SSE,165,0.0,3.0,98,0.00,,OVC046,0.00,VWS V14.01,2013-04-30 06:51:00,
2013-04-30 02:56:00,51.5,51.0,30.01,SSE,165,0.0,3.0,98,0.00,,OVC046,0.00,VWS V14.01,2013-04-30 06:56:00,
2013-04-30 03:00:00,51.5,51.0,30.01,SSE,165,0.0,3.0,98,0.00,,OVC044,0.00,VWS V14.01,2013-04-30 07:00:00,
2013-04-30 03:01:00,51.5,51.0,30.01,SSE,165,0.0,0.0,98,0.00,,BKN025,0.00,VWS V14.01,2013-04-30 07:01:00,
2013-04-30 03:06:00,51.6,51.1,30.02,SSE,165,0.0,0.0,98,0.00,,BKN025,0.00,VWS V14.01,2013-04-30 07:06:00,
2013-04-30 03:11:00,51.7,51.2,30.02,SSE,165,0.0,0.0,98,0.00,,BKN025,0.00,VWS V14.01,2013-04-30 07:11:00,
2013-04-30 03:16:00,51.8,51.3,30.02,SSE,165,0.0,0.0,98,0.00,,BKN025,0.00,VWS V14.01,2013-04-30 07:16:00,
2013-04-30 03:21:00,51.4,50.9,30.02,SSE,165,0.0,0.0,98,0.00,,BKN025,0.00,VWS V14.01,2013-04-30 07:21:00,
2013-04-30 03:26:00,51.2,50.7,30.03,SSE,165,0.0,0.0,98,0.00,,BKN025,0.00,VWS V14.01,2013-04-30 07:26:00,
2013-04-30 03:30:00,51.3,50.8,30.03,SSE,165,0.0,0.0,98,0.00,,OVC044,0.00,VWS V14.01,2013-04-30 07:30:00,
2013-04-30 03:31:00,51.5,51.0,30.03,SSE,165,0.0,0.0,98,0.00,,BKN025,0.00,VWS V14.01,2013-04-30 07:31:00,
2013-04-30 03:36:00,52.0,51.5,30.03,North,5,0.0,2.0,98,0.00,,BKN025,0.00,VWS V14.01,2013-04-30 07:36:00,
2013-04-30 03:41:00,52.8,52.2,30.03,NNE,13,0.0,3.0,98,0.00,,BKN025,0.00,VWS V14.01,2013-04-30 07:41:00,
2013-04-30 03:47:00,53.4,53.1,30.03,NNW,348,0.0,3.0,99,0.00,,BKN025,0.00,VWS V14.01,2013-04-30 07:47:00,
2013-04-30 03:52:00,53.9,53.6,30.03,NW,306,0.0,3.0,99,0.00,,BKN025,0.00,VWS V14.01,2013-04-30 07:52:00,
2013-04-30 03:57:00,53.9,53.6,30.03,NNW,329,0.0,3.0,99,0.00,,BKN025,0.00,VWS V14.01,2013-04-30 07:57:00,
2013-04-30 04:00:00,53.9,53.6,30.03,WNW,303,2.0,3.0,99,0.00,,OVC044,0.00,VWS V14.01,2013-04-30 08:00:00,
2013-04-30 04:02:00,54.1,53.8,30.03,North,355,2.0,2.0,99,0.00,,BKN080,0.00,VWS V14.01,2013-04-30 08:02:00,
2013-04-30 04:07:00,54.6,54.3,30.04,NW,320,0.0,6.0,99,0.00,,BKN080,0.00,VWS V14.01,2013-04-30 08:07:00,
2013-04-30 04:12:00,54.8,54.5,30.04,NNW,337,0.0,6.0,99,0.00,,BKN080,0.00,VWS V14.01,2013-04-30 08:12:00,
2013-04-30 04:17:00,55.0,54.7,30.04,NW,320,0.0,6.0,99,0.00,,BKN080,0.00,VWS V14.01,2013-04-30 08:17:00,
2013-04-30 04:22:00,55.1,54.8,30.04,ENE,68,0.0,6.0,99,0.00,,BKN080,0.00,VWS V14.01,2013-04-30 08:22:00,
2013-04-30 04:27:00,55.1,54.8,30.04,ESE,108,1.0,6.0,99,0.00,,BKN080,0.00,VWS V14.01,2013-04-30 08:27:00,
2013-04-30 04:30:00,55.1,54.8,30.04,ENE,63,2.0,6.0,99,0.00,,OVC044,0.00,VWS V14.01,2013-04-30 08:30:00,
2013-04-30 04:32:00,55.1,54.8,30.04,SE,128,3.0,6.0,99,0.00,,BKN080,0.00,VWS V14.01,2013-04-30 08:32:00,
2013-04-30 04:37:00,55.0,54.7,30.05,NNE,24,1.0,8.0,99,0.00,,BKN080,0.00,VWS V14.01,2013-04-30 08:37:00,
2013-04-30 04:42:00,54.9,54.6,30.05,North,360,0.0,8.0,99,0.00,,BKN080,0.00,VWS V14.01,2013-04-30 08:42:00,
2013-04-30 04:47:00,54.9,54.6,30.05,North,355,0.0,8.0,99,0.00,,BKN080,0.00,VWS V14.01,2013-04-30 08:47:00,
2013-04-30 04:52:00,54.9,54.6,30.05,North,355,0.0,8.0,99,0.00,,BKN080,0.00,VWS V14.01,2013-04-30 08:52:00,
2013-04-30 04:56:00,54.9,54.6,30.05,North,355,0.0,8.0,99,0.00,,BKN080,0.00,VWS V14.01,2013-04-30 08:56:00,
2013-04-30 05:00:00,54.9,54.6,30.05,North,355,0.0,8.0,99,0.00,,OVC044,0.00,VWS V14.01,2013-04-30 09:00:00,
2013-04-30 05:01:00,54.9,54.6,30.05,North,355,0.0,0.0,99,0.00,,OVC003,0.00,VWS V14.01,2013-04-30 09:01:00,
2013-04-30 05:07:00,54.9,54.6,30.05,North,350,0.0,1.0,99,0.00,,OVC003,0.00,VWS V14.01,2013-04-30 09:07:00,
2013-04-30 05:11:00,55.0,54.7,30.05,North,350,0.0,1.0,99,0.00,,OVC003,0.00,VWS V14.01,2013-04-30 09:11:00,
2013-04-30 05:16:00,55.0,54.7,30.05,North,350,0.0,1.0,99,0.00,,OVC003,0.00,VWS V14.01,2013-04-30 09:16:00,
2013-04-30 05:22:00,55.0,54.7,30.05,North,350,0.0,2.0,99,0.00,,OVC003,0.00,VWS V14.01,2013-04-30 09:22:00,
2013-04-30 05:27:00,55.1,54.8,30.05,North,350,0.0,2.0,99,0.00,,OVC003,0.00,VWS V14.01,2013-04-30 09:27:00,
2013-04-30 05:30:00,55.0,54.7,30.05,North,350,0.0,2.0,99,0.00,,OVC044,0.00,VWS V14.01,2013-04-30 09:30:00,
2013-04-30 05:32:00,55.1,54.8,30.05,NNW,348,1.0,2.0,99,0.00,,OVC003,0.00,VWS V14.01,2013-04-30 09:32:00,
2013-04-30 05:37:00,55.2,54.9,30.06,East,84,0.0,2.0,99,0.00,,OVC003,0.00,VWS V14.01,2013-04-30 09:37:00,
2013-04-30 05:42:00,55.3,55.0,30.06,ENE,71,0.0,4.0,99,0.00,,OVC003,0.00,VWS V14.01,2013-04-30 09:42:00,
2013-04-30 05:47:00,55.4,55.1,30.06,NNE,30,0.0,4.0,99,0.00,,OVC003,0.00,VWS V14.01,2013-04-30 09:47:00,
2013-04-30 05:52:00,55.4,55.1,30.06,NE,45,0.0,4.0,99,0.00,,OVC003,0.00,VWS V14.01,2013-04-30 09:52:00,
2013-04-30 05:57:00,55.4,55.1,30.06,NE,36,0.0,4.0,99,0.00,,OVC003,0.00,VWS V14.01,2013-04-30 09:57:00,
2013-04-30 06:00:00,55.5,55.2,30.06,North,5,0.0,4.0,99,0.00,,OVC044,0.00,VWS V14.01,2013-04-30 10:00:00,
2013-04-30 06:02:00,55.5,55.2,30.07,NW,319,0.0,1.0,99,0.00,,OVC003,0.00,VWS V14.01,2013-04-30 10:02:00,
2013-04-30 06:07:00,55.5,55.2,30.07,NNE,20,0.0,1.0,99,0.00,,OVC003,0.00,VWS V14.01,2013-04-30 10:07:00,
2013-04-30 06:12:00,55.6,55.3,30.08,NNE,20,0.0,1.0,99,0.00,,OVC003,0.00,VWS V14.01,2013-04-30 10:12:00,
2013-04-30 06:17:00,55.6,55.3,30.08,NE,36,0.0,3.0,99,0.00,,OVC003,0.00,VWS V14.01,2013-04-30 10:17:00,
2013-04-30 06:22:00,55.6,55.3,30.08,NNW,337,0.0,3.0,99,0.00,,OVC003,0.00,VWS V14.01,2013-04-30 10:22:00,
2013-04-30 06:27:00,55.6,55.3,30.08,NNW,337,0.0,3.0,99,0.00,,OVC003,0.00,VWS V14.01,2013-04-30 10:27:00,
2013-04-30 06:30:00,55.6,55.3,30.08,NNE,17,0.0,3.0,99,0.00,,OVC044,0.00,VWS V14.01,2013-04-30 10:30:00,
2013-04-30 06:32:00,55.6,55.3,30.08,NNE,17,0.0,0.0,99,0.00,,OVC003,0.00,VWS V14.01,2013-04-30 10:32:00,
2013-04-30 06:37:00,55.6,55.3,30.09,NNE,23,0.0,1.0,99,0.00,,OVC003,0.00,VWS V14.01,2013-04-30 10:37:00,
2013-04-30 06:42:00,55.6,55.3,30.09,NW,317,0.0,4.0,99,0.00,,OVC003,0.00,VWS V14.01,2013-04-30 10:42:00,
2013-04-30 06:47:00,55.7,55.4,30.09,NNW,335,0.0,4.0,99,0.00,,OVC003,0.00,VWS V14.01,2013-04-30 10:47:00,
2013-04-30 06:52:00,55.7,55.4,30.09,NNE,28,0.0,4.0,99,0.00,,OVC003,0.00,VWS V14.01,2013-04-30 10:52:00,
2013-04-30 06:57:00,55.7,55.4,30.09,NNE,28,0.0,4.0,99,0.00,,OVC003,0.00,VWS V14.01,2013-04-30 10:57:00,
2013-04-30 07:00:00,55.7,55.4,30.09,NNE,28,0.0,4.0,99,0.00,,OVC044,0.00,VWS V14.01,2013-04-30 11:00:00,
2013-04-30 07:02:00,55.7,55.4,30.09,NNE,23,0.0,2.0,99,0.00,,,0.00,VWS V14.01,2013-04-30 11:02:00,
2013-04-30 07:07:00,55.7,55.4,30.10,WNW,296,0.0,2.0,99,0.00,,,0.00,VWS V14.01,2013-04-30 11:07:00,
2013-04-30 07:12:00,55.7,55.4,30.10,NNE,12,0.0,2.0,99,0.00,,,0.00,VWS V14.01,2013-04-30 11:12:00,
2013-04-30 07:17:00,55.8,55.5,30.10,NNE,12,0.0,2.0,99,0.00,,,0.00,VWS V14.01,2013-04-30 11:17:00,
2013-04-30 07:22:00,55.8,55.5,30.10,NNE,12,0.0,2.0,99,0.00,,,0.00,VWS V14.01,2013-04-30 11:22:00,
2013-04-30 07:27:00,55.8,55.5,30.10,NNW,335,0.0,2.0,99,0.00,,,0.00,VWS V14.01,2013-04-30 11:27:00,
2013-04-30 07:30:00,55.9,55.6,30.11,NNW,335,0.0,2.0,99,0.00,,OVC044,0.00,VWS V14.01,2013-04-30 11:30:00,
2013-04-30 07:32:00,55.9,55.6,30.11,WNW,300,0.0,1.0,99,0.00,,,0.00,VWS V14.01,2013-04-30 11:32:00,
2013-04-30 07:37:00,55.9,55.6,30.11,NW,320,0.0,1.0,99,0.00,,,0.00,VWS V14.01,2013-04-30 11:37:00,
2013-04-30 07:42:00,55.9,55.6,30.11,NW,319,0.0,1.0,99,0.00,,,0.00,VWS V14.01,2013-04-30 11:42:00,
2013-04-30 07:47:00,56.0,55.7,30.11,NW,320,0.0,1.0,99,0.00,,,0.00,VWS V14.01,2013-04-30 11:47:00,
2013-04-30 07:52:00,56.1,55.8,30.11,ENE,66,0.0,2.0,99,0.00,,,0.00,VWS V14.01,2013-04-30 11:52:00,
2013-04-30 07:57:00,56.1,55.8,30.11,ENE,57,0.0,2.0,99,0.00,,,0.00,VWS V14.01,2013-04-30 11:57:00,
2013-04-30 08:00:00,56.1,55.8,30.11,ENE,57,0.0,2.0,99,0.00,,OVC044,0.00,VWS V14.01,2013-04-30 12:00:00,
2013-04-30 08:02:00,56.1,55.8,30.12,NE,56,0.0,1.0,99,0.00,,,0.00,VWS V14.01,2013-04-30 12:02:00,
2013-04-30 08:07:00,56.2,55.9,30.12,NE,56,0.0,1.0,99,0.00,,,0.00,VWS V14.01,2013-04-30 12:07:00,
2013-04-30 08:12:00,56.3,56.0,30.12,NE,56,0.0,1.0,99,0.00,,,0.00,VWS V14.01,2013-04-30 12:12:00,
2013-04-30 08:17:00,56.3,56.0,30.12,ENE,62,1.0,7.0,99,0.00,,,0.00,VWS V14.01,2013-04-30 12:17:00,
2013-04-30 08:22:00,56.4,56.1,30.12,NW,321,0.0,7.0,99,0.00,,,0.00,VWS V14.01,2013-04-30 12:22:00,
2013-04-30 08:27:00,56.5,56.2,30.12,ENE,67,0.0,7.0,99,0.00,,,0.00,VWS V14.01,2013-04-30 12:27:00,
2013-04-30 08:30:00,56.5,56.2,30.12,ENE,65,0.0,7.0,99,0.00,,OVC044,0.00,VWS V14.01,2013-04-30 12:30:00,
2013-04-30 08:32:00,56.6,56.3,30.12,NNW,343,1.0,3.0,99,0.00,,,0.00,VWS V14.01,2013-04-30 12:32:00,
2013-04-30 08:37:00,56.6,56.3,30.12,NNE,32,0.0,3.0,99,0.00,,,0.00,VWS V14.01,2013-04-30 12:37:00,
2013-04-30 08:42:00,56.7,56.4,30.12,North,360,0.0,3.0,99,0.00,,,0.00,VWS V14.01,2013-04-30 12:42:00,
2013-04-30 08:47:00,56.7,56.4,30.12,NE,55,4.0,4.0,99,0.00,,,0.00,VWS V14.01,2013-04-30 12:47:00,
2013-04-30 08:52:00,56.9,56.6,30.13,NE,36,2.0,4.0,99,0.00,,,0.00,VWS V14.01,2013-04-30 12:52:00,
2013-04-30 08:57:00,56.9,56.6,30.12,ENE,64,0.0,4.0,99,0.00,,,0.00,VWS V14.01,2013-04-30 12:57:00,
2013-04-30 09:00:00,56.9,56.6,30.12,NE,36,0.0,4.0,99,0.00,,OVC044,0.00,VWS V14.01,2013-04-30 13:00:00,
2013-04-30 09:02:00,57.0,56.7,30.13,ENE,74,0.0,2.0,99,0.00,,OVC004,0.00,VWS V14.01,2013-04-30 13:02:00,
2013-04-30 09:07:00,57.2,56.9,30.12,North,5,0.0,2.0,99,0.00,,OVC004,0.00,VWS V14.01,2013-04-30 13:07:00,
2013-04-30 09:12:00,57.3,57.0,30.12,NNE,30,0.0,2.0,99,0.00,,OVC004,0.00,VWS V14.01,2013-04-30 13:12:00,
2013-04-30 09:17:00,57.3,57.0,30.12,NNE,24,1.0,2.0,99,0.00,,OVC004,0.00,VWS V14.01,2013-04-30 13:17:00,
2013-04-30 09:22:00,57.4,57.1,30.12,North,9,0.0,2.0,99,0.00,,OVC004,0.00,VWS V14.01,2013-04-30 13:22:00,
2013-04-30 09:27:00,57.5,57.2,30.13,ESE,109,1.0,2.0,99,0.00,,OVC004,0.00,VWS V14.01,2013-04-30 13:27:00,
2013-04-30 09:30:00,57.5,57.2,30.13,East,94,0.0,3.0,99,0.00,,OVC044,0.00,VWS V14.01,2013-04-30 13:30:00,
2013-04-30 09:33:00,57.6,57.3,30.12,ENE,74,2.0,8.0,99,0.00,,OVC004,0.00,VWS V14.01,2013-04-30 13:33:00,
2013-04-30 09:38:00,57.7,57.1,30.12,NE,52,1.0,8.0,98,0.00,,OVC004,0.00,VWS V14.01,2013-04-30 13:38:00,
2013-04-30 09:43:00,57.8,57.2,30.13,NE,56,1.0,8.0,98,0.00,,OVC004,0.00,VWS V14.01,2013-04-30 13:43:00,
2013-04-30 09:48:00,58.0,57.4,30.12,North,355,2.0,8.0,98,0.00,,OVC004,0.00,VWS V14.01,2013-04-30 13:48:00,
2013-04-30 09:52:00,58.2,57.6,30.12,ENE,57,2.0,8.0,98,0.00,,OVC004,0.00,VWS V14.01,2013-04-30 13:52:00,
2013-04-30 09:58:00,58.5,57.9,30.13,NNW,344,1.0,8.0,98,0.00,,OVC004,0.00,VWS V14.01,2013-04-30 13:58:00,
2013-04-30 10:00:00,58.6,58.0,30.13,NW,325,0.0,8.0,98,0.00,,BKN046,0.00,VWS V14.01,2013-04-30 14:00:00,
2013-04-30 10:02:00,58.6,57.8,30.13,North,349,0.0,5.0,97,0.00,,OVC006,0.00,VWS V14.01,2013-04-30 14:02:00,
2013-04-30 10:07:00,58.7,57.8,30.13,NNW,327,2.0,6.0,97,0.00,,OVC006,0.00,VWS V14.01,2013-04-30 14:07:00,
2013-04-30 10:12:00,59.0,57.9,30.13,North,351,0.0,6.0,96,0.00,,OVC006,0.00,VWS V14.01,2013-04-30 14:12:00,
2013-04-30 10:18:00,59.2,57.8,30.13,NNE,14,0.0,6.0,95,0.00,,OVC006,0.00,VWS V14.01,2013-04-30 14:18:00,
2013-04-30 10:23:00,59.3,57.6,30.13,NW,323,1.0,6.0,94,0.00,,OVC006,0.00,VWS V14.01,2013-04-30 14:23:00,
2013-04-30 10:28:00,59.6,57.6,30.13,North,360,1.0,6.0,93,0.00,,OVC006,0.00,VWS V14.01,2013-04-30 14:28:00,
2013-04-30 10:30:00,59.6,57.6,30.13,NE,45,0.0,6.0,93,0.00,,BKN046,0.00,VWS V14.01,2013-04-30 14:30:00,
2013-04-30 10:33:00,59.9,58.2,30.13,NNW,342,1.0,3.0,94,0.00,,OVC006,0.00,VWS V14.01,2013-04-30 14:33:00,
2013-04-30 10:38:00,60.4,58.4,30.13,ENE,61,3.0,5.0,93,0.00,,OVC006,0.00,VWS V14.01,2013-04-30 14:38:00,
2013-04-30 10:43:00,60.5,57.9,30.13,ENE,68,2.0,8.0,91,0.00,,OVC006,0.00,VWS V14.01,2013-04-30 14:43:00,
2013-04-30 10:48:00,60.5,57.6,30.13,ENE,67,3.0,8.0,90,0.00,,OVC006,0.00,VWS V14.01,2013-04-30 14:48:00,
2013-04-30 10:53:00,60.5,58.2,30.13,ENE,64,0.0,8.0,92,0.00,,OVC006,0.00,VWS V14.01,2013-04-30 14:53:00,
2013-04-30 10:58:00,60.5,57.6,30.13,SE,136,0.0,8.0,90,0.00,,OVC006,0.00,VWS V14.01,2013-04-30 14:58:00,
2013-04-30 11:00:00,60.5,57.6,30.13,ENE,64,1.0,8.0,90,0.00,,BKN046,0.00,VWS V14.01,2013-04-30 15:00:00,
2013-04-30 11:03:00,60.6,57.7,30.13,ENE,65,1.0,5.0,90,0.00,,OVC008,0.00,VWS V14.01,2013-04-30 15:03:00,
2013-04-30 11:08:00,60.8,57.8,30.13,NE,51,1.0,5.0,90,0.00,,OVC008,0.00,VWS V14.01,2013-04-30 15:08:00,
2013-04-30 11:13:00,61.3,58.0,30.13,NNW,333,0.0,5.0,89,0.00,,OVC008,0.00,VWS V14.01,2013-04-30 15:13:00,
2013-04-30 11:18:00,61.4,57.5,30.14,NNW,344,3.0,5.0,87,0.00,,OVC008,0.00,VWS V14.01,2013-04-30 15:18:00,
2013-04-30 11:23:00,61.8,58.2,30.14,NNW,342,3.0,5.0,88,0.00,,OVC008,0.00,VWS V14.01,2013-04-30 15:23:00,
2013-04-30 11:28:00,61.8,57.9,30.14,North,5,2.0,5.0,87,0.00,,OVC008,0.00,VWS V14.01,2013-04-30 15:28:00,
2013-04-30 11:30:00,61.8,57.6,30.14,NNW,338,0.0,5.0,86,0.00,,BKN046,0.00,VWS V14.01,2013-04-30 15:30:00,
2013-04-30 11:33:00,61.9,58.0,30.14,NNE,28,3.0,5.0,87,0.00,,OVC008,0.00,VWS V14.01,2013-04-30 15:33:00,
2013-04-30 11:38:00,62.0,58.1,30.14,North,5,0.0,5.0,87,0.00,,OVC008,0.00,VWS V14.01,2013-04-30 15:38:00,
2013-04-30 11:43:00,62.4,58.2,30.13,NNE,30,1.0,5.0,86,0.00,,OVC008,0.00,VWS V14.01,2013-04-30 15:43:00,
2013-04-30 11:48:00,62.9,58.0,30.13,SE,134,1.0,5.0,84,0.00,,OVC008,0.00,VWS V14.01,2013-04-30 15:48:00,
2013-04-30 11:53:00,63.4,58.2,30.13,NE,50,4.0,5.0,83,0.00,,OVC008,0.00,VWS V14.01,2013-04-30 15:53:00,
2013-04-30 11:58:00,63.3,58.1,30.13,NE,42,0.0,5.0,83,0.00,,OVC008,0.00,VWS V14.01,2013-04-30 15:58:00,
2013-04-30 12:00:00,63.3,57.7,30.13,NE,39,2.0,5.0,82,0.00,,BKN046,0.00,VWS V14.01,2013-04-30 16:00:00,
2013-04-30 12:03:00,63.5,57.9,30.13,NE,46,2.0,3.0,82,0.00,,OVC015,0.00,VWS V14.01,2013-04-30 16:03:00,
2013-04-30 12:08:00,64.0,57.4,30.13,East,84,3.0,5.0,79,0.00,,OVC015,0.00,VWS V14.01,2013-04-30 16:08:00,
2013-04-30 12:13:00,64.0,57.4,30.13,East,90,6.0,7.0,79,0.00,,OVC015,0.00,VWS V14.01,2013-04-30 16:13:00,
2013-04-30 12:18:00,63.8,57.5,30.12,NNE,18,5.0,8.0,80,0.00,,OVC015,0.00,VWS V14.01,2013-04-30 16:18:00,
2013-04-30 12:23:00,63.7,57.4,30.12,NE,53,3.0,8.0,80,0.00,,OVC015,0.00,VWS V14.01,2013-04-30 16:23:00,
2013-04-30 12:28:00,63.9,58.3,30.12,ENE,74,2.0,8.0,82,0.00,,OVC015,0.00,VWS V14.01,2013-04-30 16:28:00,
2013-04-30 12:30:00,63.9,58.3,30.12,NNE,19,1.0,8.0,82,0.00,,BKN046,0.00,VWS V14.01,2013-04-30 16:30:00,
2013-04-30 12:33:00,64.1,57.8,30.12,NW,323,0.0,3.0,80,0.00,,OVC015,0.00,VWS V14.01,2013-04-30 16:33:00,
2013-04-30 12:38:00,64.3,58.7,30.12,NE,36,0.0,6.0,82,0.00,,OVC015,0.00,VWS V14.01,2013-04-30 16:38:00,
2013-04-30 12:43:00,64.5,57.8,30.12,East,90,2.0,6.0,79,0.00,,OVC015,0.00,VWS V14.01,2013-04-30 16:43:00,
2013-04-30 12:48:00,64.5,57.8,30.12,ENE,65,0.0,6.0,79,0.00,,OVC015,0.00,VWS V14.01,2013-04-30 16:48:00,
2013-04-30 12:53:00,64.8,58.1,30.12,East,96,1.0,6.0,79,0.00,,OVC015,0.00,VWS V14.01,2013-04-30 16:53:00,
2013-04-30 12:58:00,65.1,58.8,30.12,ESE,118,2.0,6.0,80,0.00,,OVC015,0.00,VWS V14.01,2013-04-30 16:58:00,
2013-04-30 13:00:00,65.2,58.5,30.11,ESE,110,0.0,6.0,79,0.00,,BKN046,0.00,VWS V14.01,2013-04-30 17:00:00,
2013-04-30 13:03:00,65.4,59.1,30.12,ESE,107,0.0,2.0,80,0.00,,OVC015,0.00,VWS V14.01,2013-04-30 17:03:00,
2013-04-30 13:08:00,65.4,58.7,30.12,ENE,65,0.0,2.0,79,0.00,,OVC015,0.00,VWS V14.01,2013-04-30 17:08:00,
2013-04-30 13:13:00,65.5,59.2,30.11,NE,44,0.0,2.0,80,0.00,,OVC015,0.00,VWS V14.01,2013-04-30 17:13:00,
2013-04-30 13:18:00,65.2,58.9,30.11,NNE,13,0.0,3.0,80,0.00,,OVC015,0.00,VWS V14.01,2013-04-30 17:18:00,
2013-04-30 13:23:00,65.0,58.7,30.11,NNW,332,0.0,3.0,80,0.00,,OVC015,0.00,VWS V14.01,2013-04-30 17:23:00,
2013-04-30 13:28:00,65.0,59.0,30.11,NNW,335,0.0,3.0,81,0.00,,OVC015,0.00,VWS V14.01,2013-04-30 17:28:00,
2013-04-30 13:30:00,65.0,59.4,30.11,NNW,329,0.0,3.0,82,0.00,,BKN046,0.00,VWS V14.01,2013-04-30 17:30:00,
2013-04-30 13:33:00,65.1,59.5,30.11,North,355,0.0,0.0,82,0.00,,OVC015,0.00,VWS V14.01,2013-04-30 17:33:00,
2013-04-30 13:38:00,65.0,58.7,30.11,ENE,78,0.0,2.0,80,0.00,,OVC015,0.00,VWS V14.01,2013-04-30 17:38:00,
2013-04-30 13:43:00,64.9,58.9,30.11,NW,313,1.0,3.0,81,0.00,,OVC015,0.00,VWS V14.01,2013-04-30 17:43:00,
2013-04-30 13:48:00,64.8,58.1,30.11,NE,51,0.0,3.0,79,0.00,,OVC015,0.00,VWS V14.01,2013-04-30 17:48:00,
2013-04-30 13:53:00,64.9,58.2,30.11,WNW,296,0.0,3.0,79,0.00,,OVC015,0.00,VWS V14.01,2013-04-30 17:53:00,
2013-04-30 13:58:00,65.2,58.5,30.11,East,85,0.0,3.0,79,0.00,,OVC015,0.00,VWS V14.01,2013-04-30 17:58:00,
2013-04-30 14:00:00,65.2,58.5,30.11,East,85,0.0,3.0,79,0.00,,BKN046,0.00,VWS V14.01,2013-04-30 18:00:00,
2013-04-30 14:03:00,65.4,58.4,30.11,ENE,60,3.0,6.0,78,0.00,,OVC019,0.00,VWS V14.01,2013-04-30 18:03:00,
2013-04-30 14:08:00,65.3,58.6,30.11,NE,47,0.0,6.0,79,0.00,,OVC019,0.00,VWS V14.01,2013-04-30 18:08:00,
2013-04-30 14:13:00,65.4,59.1,30.11,NE,49,0.0,6.0,80,0.00,,OVC019,0.00,VWS V14.01,2013-04-30 18:13:00,
2013-04-30 14:18:00,65.5,59.2,30.11,East,80,1.0,6.0,80,0.00,,OVC019,0.00,VWS V14.01,2013-04-30 18:18:00,
2013-04-30 14:23:00,65.4,59.1,30.11,East,79,1.0,7.0,80,0.00,,OVC019,0.00,VWS V14.01,2013-04-30 18:23:00,
2013-04-30 14:28:00,65.5,58.5,30.11,WNW,286,0.0,7.0,78,0.00,,OVC019,0.00,VWS V14.01,2013-04-30 18:28:00,
2013-04-30 14:30:00,65.6,58.9,30.11,East,82,2.0,7.0,79,0.00,,BKN046,0.00,VWS V14.01,2013-04-30 18:30:00,
2013-04-30 14:33:00,65.5,58.5,30.11,SE,138,1.0,7.0,78,0.00,,OVC019,0.00,VWS V14.01,2013-04-30 18:33:00,
2013-04-30 14:38:00,65.7,59.4,30.12,North,11,0.0,7.0,80,0.00,,OVC019,0.00,VWS V14.01,2013-04-30 18:38:00,
2013-04-30 14:43:00,65.8,58.4,30.11,NW,304,0.0,7.0,77,0.00,,OVC019,0.00,VWS V14.01,2013-04-30 18:43:00,
2013-04-30 14:48:00,65.8,59.1,30.11,ENE,57,0.0,7.0,79,0.00,,OVC019,0.00,VWS V14.01,2013-04-30 18:48:00,
2013-04-30 14:53:00,65.9,59.2,30.11,East,80,2.0,7.0,79,0.00,,OVC019,0.00,VWS V14.01,2013-04-30 18:53:00,
2013-04-30 14:58:00,66.0,58.6,30.11,NNE,32,0.0,7.0,77,0.00,,OVC019,0.00,VWS V14.01,2013-04-30 18:58:00,
2013-04-30 15:00:00,66.0,59.0,30.11,NNE,32,0.0,7.0,78,0.00,,BKN046,0.00,VWS V14.01,2013-04-30 19:00:00,
2013-04-30 15:03:00,65.9,58.1,30.11,NE,43,0.0,1.0,76,0.00,,OVC026,0.00,VWS V14.01,2013-04-30 19:03:00,
2013-04-30 15:08:00,66.0,58.6,30.11,ENE,61,2.0,3.0,77,0.00,,OVC026,0.00,VWS V14.01,2013-04-30 19:08:00,
2013-04-30 15:13:00,66.3,59.2,30.11,East,86,2.0,3.0,78,0.00,,OVC026,0.00,VWS V14.01,2013-04-30 19:13:00,
2013-04-30 15:18:00,66.6,58.4,30.11,NE,34,2.0,6.0,75,0.00,,OVC026,0.00,VWS V14.01,2013-04-30 19:18:00,
2013-04-30 15:23:00,66.7,58.2,30.11,NE,53,0.0,6.0,74,0.00,,OVC026,0.00,VWS V14.01,2013-04-30 19:23:00,
2013-04-30 15:28:00,66.8,59.4,30.11,NW,317,3.0,6.0,77,0.00,,OVC026,0.00,VWS V14.01,2013-04-30 19:28:00,
2013-04-30 15:30:00,66.9,59.8,30.11,North,5,1.0,6.0,78,0.00,,BKN046,0.00,VWS V14.01,2013-04-30 19:30:00,
2013-04-30 15:33:00,67.0,59.6,30.11,NE,54,2.0,3.0,77,0.00,,OVC026,0.00,VWS V14.01,2013-04-30 19:33:00,
2013-04-30 15:38:00,67.1,58.5,30.11,ESE,112,1.0,5.0,74,0.00,,OVC026,0.00,VWS V14.01,2013-04-30 19:38:00,
2013-04-30 15:43:00,67.1,58.9,30.11,NNE,18,3.0,5.0,75,0.00,,OVC026,0.00,VWS V14.01,2013-04-30 19:43:00,
2013-04-30 15:48:00,67.0,59.2,30.11,ESE,111,2.0,5.0,76,0.00,,OVC026,0.00,VWS V14.01,2013-04-30 19:48:00,
2013-04-30 15:53:00,66.7,58.5,30.11,ENE,59,0.0,5.0,75,0.00,,OVC026,0.00,VWS V14.01,2013-04-30 19:53:00,
2013-04-30 15:58:00,66.2,58.4,30.11,NE,49,0.0,7.0,76,0.00,,OVC026,0.00,VWS V14.01,2013-04-30 19:58:00,
2013-04-30 16:00:00,66.1,59.0,30.11,NE,49,0.0,7.0,78,0.00,,BKN046,0.00,VWS V14.01,2013-04-30 20:00:00,
2013-04-30 16:03:00,66.0,58.6,30.11,NNE,19,0.0,3.0,77,0.00,,OVC025,0.00,VWS V14.01,2013-04-30 20:03:00,
2013-04-30 16:08:00,65.7,59.0,30.11,ENE,77,0.0,7.0,79,0.00,,OVC025,0.00,VWS V14.01,2013-04-30 20:08:00,
2013-04-30 16:13:00,65.7,58.7,30.11,West,275,0.0,7.0,78,0.00,,OVC025,0.00,VWS V14.01,2013-04-30 20:13:00,
2013-04-30 16:18:00,65.7,59.0,30.11,ESE,120,0.0,7.0,79,0.00,,OVC025,0.00,VWS V14.01,2013-04-30 20:18:00,
2013-04-30 16:23:00,65.8,58.8,30.11,NNE,32,2.0,7.0,78,0.00,,OVC025,0.00,VWS V14.01,2013-04-30 20:23:00,
2013-04-30 16:28:00,66.0,59.0,30.11,NNE,15,1.0,7.0,78,0.00,,OVC025,0.00,VWS V14.01,2013-04-30 20:28:00,
2013-04-30 16:30:00,66.0,58.6,30.11,NNE,15,0.0,7.0,77,0.00,,BKN046,0.00,VWS V14.01,2013-04-30 20:30:00,
2013-04-30 16:33:00,66.3,59.2,30.11,East,85,0.0,3.0,78,0.00,,OVC025,0.00,VWS V14.01,2013-04-30 20:33:00,
2013-04-30 16:38:00,66.6,58.8,30.11,East,87,0.0,4.0,76,0.00,,OVC025,0.00,VWS V14.01,2013-04-30 20:38:00,
2013-04-30 16:43:00,66.9,58.7,30.11,NNE,32,1.0,4.0,75,0.00,,OVC025,0.00,VWS V14.01,2013-04-30 20:43:00,
2013-04-30 16:48:00,67.2,59.4,30.11,NNE,26,0.0,4.0,76,0.00,,OVC025,0.00,VWS V14.01,2013-04-30 20:48:00,
2013-04-30 16:53:00,67.3,58.7,30.11,East,84,0.0,4.0,74,0.00,,OVC025,0.00,VWS V14.01,2013-04-30 20:53:00,
2013-04-30 16:58:00,67.4,58.8,30.11,NNE,19,2.0,4.0,74,0.00,,OVC025,0.00,VWS V14.01,2013-04-30 20:58:00,
2013-04-30 17:00:00,67.4,58.1,30.11,NNE,32,0.0,4.0,72,0.00,,BKN046,0.00,VWS V14.01,2013-04-30 21:00:00,
2013-04-30 17:03:00,67.9,58.9,30.11,NNE,26,0.0,2.0,73,0.00,,OVC029,0.00,VWS V14.01,2013-04-30 21:03:00,
2013-04-30 17:08:00,68.2,58.8,30.11,East,83,2.0,7.0,72,0.00,,OVC029,0.00,VWS V14.01,2013-04-30 21:08:00,
2013-04-30 17:13:00,67.9,58.2,30.11,NE,55,3.0,10.0,71,0.00,,OVC029,0.00,VWS V14.01,2013-04-30 21:13:00,
2013-04-30 17:18:00,67.1,57.8,30.11,ENE,61,1.0,10.0,72,0.00,,OVC029,0.00,VWS V14.01,2013-04-30 21:18:00,
2013-04-30 17:23:00,66.5,57.2,30.11,East,79,5.0,10.0,72,0.00,,OVC029,0.00,VWS V14.01,2013-04-30 21:23:00,
2013-04-30 17:28:00,66.2,57.7,30.11,ESE,119,7.0,10.0,74,0.00,,OVC029,0.00,VWS V14.01,2013-04-30 21:28:00,
2013-04-30 17:30:00,66.1,57.2,30.11,ESE,105,1.0,10.0,73,0.00,,BKN046,0.00,VWS V14.01,2013-04-30 21:30:00,
2013-04-30 17:33:00,66.0,57.5,30.11,ENE,58,2.0,4.0,74,0.00,,OVC029,0.00,VWS V14.01,2013-04-30 21:33:00,
2013-04-30 17:38:00,65.9,57.8,30.11,East,97,5.0,6.0,75,0.00,,OVC029,0.00,VWS V14.01,2013-04-30 21:38:00,
2013-04-30 17:43:00,65.8,57.7,30.11,ESE,106,5.0,10.0,75,0.00,,OVC029,0.00,VWS V14.01,2013-04-30 21:43:00,
2013-04-30 17:48:00,65.8,57.3,30.11,NE,50,0.0,10.0,74,0.00,,OVC029,0.00,VWS V14.01,2013-04-30 21:48:00,
2013-04-30 17:53:00,66.0,57.9,30.11,NE,40,1.0,10.0,75,0.00,,OVC029,0.00,VWS V14.01,2013-04-30 21:53:00,
2013-04-30 17:58:00,66.1,58.7,30.11,ENE,66,1.0,10.0,77,0.00,,OVC029,0.00,VWS V14.01,2013-04-30 21:58:00,
2013-04-30 18:00:00,66.1,58.0,30.11,North,10,1.0,10.0,75,0.00,,BKN046,0.00,VWS V14.01,2013-04-30 22:00:00,
2013-04-30 18:03:00,66.2,58.0,30.11,North,355,0.0,6.0,75,0.00,,OVC034,0.00,VWS V14.01,2013-04-30 22:03:00,
2013-04-30 18:08:00,66.2,58.0,30.12,ENE,69,2.0,8.0,75,0.00,,OVC034,0.00,VWS V14.01,2013-04-30 22:08:00,
2013-04-30 18:13:00,66.3,58.2,30.12,NE,38,3.0,11.0,75,0.00,,OVC034,0.00,VWS V14.01,2013-04-30 22:13:00,
2013-04-30 18:18:00,66.4,57.5,30.12,ENE,66,0.0,11.0,73,0.00,,OVC034,0.00,VWS V14.01,2013-04-30 22:18:00,
2013-04-30 18:23:00,66.5,57.6,30.12,East,94,5.0,11.0,73,0.00,,OVC034,0.00,VWS V14.01,2013-04-30 22:23:00,
2013-04-30 18:28:00,66.5,57.6,30.12,NNE,33,3.0,11.0,73,0.00,,OVC034,0.00,VWS V14.01,2013-04-30 22:28:00,
2013-04-30 18:30:00,66.5,57.6,30.13,NE,39,0.0,11.0,73,0.00,,BKN046,0.00,VWS V14.01,2013-04-30 22:30:00,
2013-04-30 18:33:00,66.3,58.2,30.13,East,98,0.0,5.0,75,0.00,,OVC034,0.00,VWS V14.01,2013-04-30 22:33:00,
2013-04-30 18:38:00,66.1,57.6,30.13,NE,49,2.0,8.0,74,0.00,,OVC034,0.00,VWS V14.01,2013-04-30 22:38:00,
2013-04-30 18:43:00,65.7,57.2,30.13,East,101,3.0,8.0,74,0.00,,OVC034,0.00,VWS V14.01,2013-04-30 22:43:00,
2013-04-30 18:48:00,65.3,57.5,30.13,East,91,0.0,8.0,76,0.00,,OVC034,0.00,VWS V14.01,2013-04-30 22:48:00,
2013-04-30 18:53:00,65.0,58.0,30.14,NNE,24,1.0,8.0,78,0.00,,OVC034,0.00,VWS V14.01,2013-04-30 22:53:00,
2013-04-30 18:58:00,64.8,57.4,30.14,NE,52,1.0,8.0,77,0.00,,OVC034,0.00,VWS V14.01,2013-04-30 22:58:00,
2013-04-30 19:00:00,64.8,57.1,30.14,East,89,0.0,8.0,76,0.00,,BKN046,0.00,VWS V14.01,2013-04-30 23:00:00,
2013-04-30 19:03:00,64.7,57.3,30.14,East,91,0.0,3.0,77,0.00,,OVC036,0.00,VWS V14.01,2013-04-30 23:03:00,
2013-04-30 19:08:00,64.5,56.8,30.14,East,90,0.0,6.0,76,0.00,,OVC036,0.00,VWS V14.01,2013-04-30 23:08:00,
2013-04-30 19:13:00,64.3,56.6,30.14,East,87,0.0,6.0,76,0.00,,OVC036,0.00,VWS V14.01,2013-04-30 23:13:00,
2013-04-30 19:18:00,64.2,57.2,30.14,ENE,74,0.0,6.0,78,0.00,,OVC036,0.00,VWS V14.01,2013-04-30 23:18:00,
2013-04-30 19:23:00,64.0,57.4,30.15,ENE,77,0.0,6.0,79,0.00,,OVC036,0.00,VWS V14.01,2013-04-30 23:23:00,
2013-04-30 19:28:00,63.8,57.2,30.15,ENE,77,0.0,6.0,79,0.00,,OVC036,0.00,VWS V14.01,2013-04-30 23:28:00,
2013-04-30 19:30:00,63.8,57.2,30.15,ENE,77,0.0,6.0,79,0.00,,BKN046,0.00,VWS V14.01,2013-04-30 23:30:00,
2013-04-30 19:33:00,63.7,57.4,30.15,ENE,77,0.0,0.0,80,0.00,,OVC036,0.00,VWS V14.01,2013-04-30 23:33:00,
2013-04-30 19:39:00,63.6,57.7,30.15,East,86,0.0,1.0,81,0.00,,OVC036,0.00,VWS V14.01,2013-04-30 23:39:00,
2013-04-30 19:44:00,63.4,57.1,30.15,East,86,0.0,1.0,80,0.00,,OVC036,0.00,VWS V14.01,2013-04-30 23:44:00,
2013-04-30 19:49:00,63.3,57.4,30.15,East,86,0.0,1.0,81,0.00,,OVC036,0.00,VWS V14.01,2013-04-30 23:49:00,
2013-04-30 19:54:00,63.1,57.2,30.16,East,86,0.0,1.0,81,0.00,,OVC036,0.00,VWS V14.01,2013-04-30 23:54:00,
2013-04-30 19:59:00,62.9,57.3,30.16,East,86,0.0,1.0,82,0.00,,OVC036,0.00,VWS V14.01,2013-04-30 23:59:00,
2013-04-30 20:00:00,62.9,57.3,30.16,East,86,0.0,1.0,82,0.00,,BKN046,0.00,VWS V14.01,2013-05-01 00:00:00,
2013-04-30 20:04:00,62.7,57.5,30.16,East,86,0.0,0.0,83,0.00,,BKN036,0.00,VWS V14.01,2013-05-01 00:04:00,
2013-04-30 20:09:00,62.5,57.6,30.16,NE,53,0.0,0.0,84,0.00,,BKN036,0.00,VWS V14.01,2013-05-01 00:09:00,
2013-04-30 20:14:00,62.1,57.2,30.16,NE,53,0.0,0.0,84,0.00,,BKN036,0.00,VWS V14.01,2013-05-01 00:14:00,
2013-04-30 20:19:00,61.7,57.5,30.16,NE,53,0.0,0.0,86,0.00,,BKN036,0.00,VWS V14.01,2013-05-01 00:19:00,
2013-04-30 20:24:00,61.3,57.1,30.16,NE,53,0.0,0.0,86,0.00,,BKN036,0.00,VWS V14.01,2013-05-01 00:24:00,
2013-04-30 20:29:00,60.8,56.9,30.16,NE,53,0.0,0.0,87,0.00,,BKN036,0.00,VWS V14.01,2013-05-01 00:29:00,
2013-04-30 20:30:00,60.8,56.9,30.16,NE,53,0.0,0.0,87,0.00,,BKN046,0.00,VWS V14.01,2013-05-01 00:30:00,
2013-04-30 20:34:00,60.4,56.8,30.17,NE,53,0.0,0.0,88,0.00,,BKN036,0.00,VWS V14.01,2013-05-01 00:34:00,
2013-04-30 20:39:00,59.9,56.7,30.17,NE,53,0.0,0.0,89,0.00,,BKN036,0.00,VWS V14.01,2013-05-01 00:39:00,
2013-04-30 20:44:00,59.6,56.7,30.17,NE,53,0.0,0.0,90,0.00,,BKN036,0.00,VWS V14.01,2013-05-01 00:44:00,
2013-04-30 20:49:00,59.3,56.1,30.17,NE,53,0.0,0.0,89,0.00,,BKN036,0.00,VWS V14.01,2013-05-01 00:49:00,
2013-04-30 20:54:00,59.1,56.2,30.17,NE,53,0.0,0.0,90,0.00,,BKN036,0.00,VWS V14.01,2013-05-01 00:54:00,
2013-04-30 20:59:00,58.9,56.3,30.17,NE,53,0.0,0.0,91,0.00,,BKN036,0.00,VWS V14.01,2013-05-01 00:59:00,
2013-04-30 21:00:00,58.9,56.3,30.17,NE,53,0.0,0.0,91,0.00,,BKN046,0.00,VWS V14.01,2013-05-01 01:00:00,
2013-04-30 21:04:00,58.7,56.4,30.17,NE,53,0.0,0.0,92,0.00,,BKN036,0.00,VWS V14.01,2013-05-01 01:04:00,
2013-04-30 21:09:00,58.6,56.3,30.17,NE,53,0.0,0.0,92,0.00,,BKN036,0.00,VWS V14.01,2013-05-01 01:09:00,
2013-04-30 21:14:00,58.6,56.3,30.18,NE,53,0.0,0.0,92,0.00,,BKN036,0.00,VWS V14.01,2013-05-01 01:14:00,
2013-04-30 21:19:00,58.5,56.5,30.18,NNE,24,0.0,0.0,93,0.00,,BKN036,0.00,VWS V14.01,2013-05-01 01:19:00,
2013-04-30 21:24:00,58.6,56.6,30.18,NNE,24,0.0,0.0,93,0.00,,BKN036,0.00,VWS V14.01,2013-05-01 01:24:00,
2013-04-30 21:29:00,58.5,56.5,30.18,South,190,0.0,0.0,93,0.00,,BKN036,0.00,VWS V14.01,2013-05-01 01:29:00,
2013-04-30 21:30:00,58.5,56.5,30.18,South,190,0.0,2.0,93,0.00,,BKN046,0.00,VWS V14.01,2013-05-01 01:30:00,
2013-04-30 21:34:00,58.6,56.3,30.19,East,94,0.0,1.0,92,0.00,,BKN036,0.00,VWS V14.01,2013-05-01 01:34:00,
2013-04-30 21:39:00,58.7,56.4,30.19,WNW,303,0.0,1.0,92,0.00,,BKN036,0.00,VWS V14.01,2013-05-01 01:39:00,
2013-04-30 21:44:00,58.7,56.4,30.19,NW,305,1.0,1.0,92,0.00,,BKN036,0.00,VWS V14.01,2013-05-01 01:44:00,
2013-04-30 21:49:00,58.9,56.6,30.19,NNW,346,0.0,1.0,92,0.00,,BKN036,0.00,VWS V14.01,2013-05-01 01:49:00,
2013-04-30 21:55:00,59.0,56.7,30.19,NNW,346,0.0,1.0,92,0.00,,BKN036,0.00,VWS V14.01,2013-05-01 01:55:00,
2013-04-30 22:00:00,59.1,56.8,30.19,NNW,346,0.0,0.0,92,0.00,,BKN036,0.00,VWS V14.01,2013-05-01 02:00:00,
2013-04-30 22:05:00,59.1,56.8,30.19,NNW,346,0.0,0.0,92,0.00,,BKN042,0.00,VWS V14.01,2013-05-01 02:05:00,
2013-04-30 22:10:00,59.2,57.2,30.19,NNW,346,0.0,0.0,93,0.00,,BKN042,0.00,VWS V14.01,2013-05-01 02:10:00,
2013-04-30 22:15:00,59.3,57.0,30.19,NNW,346,0.0,0.0,92,0.00,,BKN042,0.00,VWS V14.01,2013-05-01 02:15:00,
2013-04-30 22:20:00,59.3,57.0,30.19,ENE,60,0.0,0.0,92,0.00,,BKN042,0.00,VWS V14.01,2013-05-01 02:20:00,
2013-04-30 22:25:00,59.4,57.1,30.20,NE,51,0.0,3.0,92,0.00,,BKN042,0.00,VWS V14.01,2013-05-01 02:25:00,
2013-04-30 22:30:00,59.7,57.1,30.20,NNE,18,0.0,0.0,91,0.00,,BKN042,0.00,VWS V14.01,2013-05-01 02:30:00,
2013-04-30 22:35:00,59.8,56.9,30.20,NE,42,0.0,4.0,90,0.00,,BKN042,0.00,VWS V14.01,2013-05-01 02:35:00,
2013-04-30 22:40:00,59.9,57.0,30.20,NNW,335,0.0,4.0,90,0.00,,BKN042,0.00,VWS V14.01,2013-05-01 02:40:00,
2013-04-30 22:45:00,60.1,57.2,30.20,NNE,30,0.0,4.0,90,0.00,,BKN042,0.00,VWS V14.01,2013-05-01 02:45:00,
2013-04-30 22:50:00,60.0,57.4,30.20,WNW,297,1.0,5.0,91,0.00,,BKN042,0.00,VWS V14.01,2013-05-01 02:50:00,
2013-04-30 22:55:00,59.9,57.3,30.20,NNE,13,2.0,5.0,91,0.00,,BKN042,0.00,VWS V14.01,2013-05-01 02:55:00,
2013-04-30 23:00:00,59.8,57.2,30.20,NNE,20,0.0,0.0,91,0.00,,BKN046,0.00,VWS V14.01,2013-05-01 03:00:00,
2013-04-30 23:05:00,59.6,57.3,30.19,NNW,329,1.0,1.0,92,0.00,,BKN046,0.00,VWS V14.01,2013-05-01 03:05:00,
2013-04-30 23:10:00,59.4,57.1,30.20,NW,325,2.0,2.0,92,0.00,,BKN046,0.00,VWS V14.01,2013-05-01 03:10:00,
2013-04-30 23:15:00,59.3,57.0,30.20,SSE,167,0.0,2.0,92,0.00,,BKN046,0.00,VWS V14.01,2013-05-01 03:15:00,
2013-04-30 23:20:00,59.1,56.8,30.20,NNE,28,0.0,2.0,92,0.00,,BKN046,0.00,VWS V14.01,2013-05-01 03:20:00,
2013-04-30 23:25:00,59.1,56.8,30.19,NNW,345,0.0,2.0,92,0.00,,BKN046,0.00,VWS V14.01,2013-05-01 03:25:00,
2013-04-30 23:30:00,59.0,56.7,30.19,North,349,1.0,1.0,92,0.00,,BKN046,0.00,VWS V14.01,2013-05-01 03:30:00,
2013-04-30 23:35:00,59.0,56.7,30.20,ENE,60,5.0,5.0,92,0.00,,BKN046,0.00,VWS V14.01,2013-05-01 03:35:00,
2013-04-30 23:40:00,58.9,56.6,30.20,ENE,77,2.0,5.0,92,0.00,,BKN046,0.00,VWS V14.01,2013-05-01 03:40:00,
2013-04-30 23:45:00,58.9,56.6,30.19,NE,50,0.0,5.0,92,0.00,,BKN046,0.00,VWS V14.01,2013-05-01 03:45:00,
2013-04-30 23:50:00,58.9,56.6,30.20,NW,319,0.0,5.0,92,0.00,,BKN046,0.00,VWS V14.01,2013-05-01 03:50:00,
2013-04-30 23:55:00,58.9,56.6,30.19,NW,306,0.0,5.0,92,0.00,,BKN046,0.00,VWS V14.01,2013-05-01 03:55:00,